World > North America > United States > California > Marysville   City of Marysville, California

Marysville, CA Hourly Weather Forecast

Feedback E-mail the Weather

Quick Clicks

Weather World

24 Hour Forecast

Current Conditions - Clear. Temperature is 58°F14°C, dew point 52°F11°C, humidity 80%. Wind direction is N at 0 mph0 km/h with visibility of 10 mi16 km. Barometric pressure is 29.94 in1013 mb.
Today - Mostly sunny. Highs 79 to 84. Light winds becoming south up to 10 mph in the afternoon... Full Forecast
Tonight - Clear in the evening then becoming partly cloudy. Lows around 56. Southeast winds up to 10 mph... Full Forecast

Marysville Hourly Weather

24 Hour Weather Scroll
Fri, Apr 19
8:00 am
Fri, Apr 19
9:00 am
Fri, Apr 19
10:00 am
Fri, Apr 19
11:00 am
Fri, Apr 19
Noon
Fri, Apr 19
1:00 pm
Fri, Apr 19
2:00 pm
Fri, Apr 19
3:00 pm
Fri, Apr 19
4:00 pm
Fri, Apr 19
5:00 pm
Fri, Apr 19
6:00 pm
Fri, Apr 19
7:00 pm
Fri, Apr 19
8:00 pm
Fri, Apr 19
9:00 pm
Fri, Apr 19
10:00 pm
Fri, Apr 19
11:00 pm
Sat, Apr 20
Midnight
Sat, Apr 20
1:00 am
Sat, Apr 20
2:00 am
Sat, Apr 20
3:00 am
Sat, Apr 20
4:00 am
Sat, Apr 20
5:00 am
Sat, Apr 20
6:00 am
Sat, Apr 20
7:00 am
SunnySunnySunnySunnySunnySunnySunnySunnySunnySunnySunnySunnyClear Clear Clear Clear Clear Clear Clear Clear Partly Cloudy Overcast Overcast Partly Cloudy
Sunny Sunny Sunny Sunny Sunny Sunny Sunny Sunny Sunny Sunny Sunny Sunny Clear Clear Clear Clear Clear Clear Clear Clear Partly Cloudy Overcast Overcast Partly Cloudy
59°F15°C 64°F18°C 68°F20°C 71°F21°C 73°F23°C 75°F24°C 77°F25°C 77°F25°C 78°F25°C 77°F25°C 75°F24°C 71°F21°C 67°F20°C 65°F18°C 63°F17°C 61°F16°C 60°F15°C 59°F15°C 58°F15°C 57°F14°C 56°F13°C 55°F13°C 55°F13°C 57°F14°C
54°F
12°C
56°F
13°C
57°F
14°C
58°F
15°C
59°F
15°C
58°F
15°C
58°F
14°C
57°F
14°C
57°F
14°C
57°F
14°C
61°F
16°C
61°F
16°C
58°F
14°C
57°F
14°C
57°F
14°C
56°F
13°C
55°F
13°C
54°F
12°C
53°F
12°C
52°F
11°C
51°F
10°C
50°F
10°C
49°F
10°C
50°F
10°C
29.94 in
1014 mb
29.94 in
1014 mb
29.91 in
1013 mb
29.91 in
1013 mb
29.91 in
1013 mb
29.88 in
1012 mb
29.88 in
1012 mb
29.85 in
1011 mb
29.85 in
1011 mb
29.85 in
1011 mb
29.85 in
1011 mb
29.83 in
1010 mb
29.85 in
1011 mb
29.88 in
1012 mb
29.88 in
1012 mb
29.88 in
1012 mb
29.91 in
1013 mb
29.91 in
1013 mb
29.91 in
1013 mb
29.91 in
1013 mb
29.94 in
1014 mb
29.94 in
1014 mb
29.97 in
1015 mb
30 in
1016 mb
84%75%70%65%60%55%51%48%48%49%58%67%73%79%83%84%84%83%83%80%82%83%82%82%
NWWWWWSWWSWSSWSSSESSESSESSESSESESESESESSESSESSESSESSESSE
2 mph
4 km/h
2 mph
3 km/h
2 mph
4 km/h
2 mph
4 km/h
3 mph
5 km/h
3 mph
5 km/h
4 mph
6 km/h
4 mph
6 km/h
4 mph
6 km/h
5 mph
8 km/h
5 mph
8 km/h
6 mph
9 km/h
6 mph
10 km/h
6 mph
10 km/h
7 mph
11 km/h
7 mph
11 km/h
6 mph
10 km/h
5 mph
8 km/h
5 mph
8 km/h
4 mph
7 km/h
5 mph
8 km/h
5 mph
8 km/h
4 mph
7 km/h
4 mph
7 km/h
0%0%0%0%0%0%0%0%0%0%0%0%0%0%0%0%0%0%0%0%0%0%0%0%
7 mi
11 km
6 mi
10 km
6 mi
10 km
6 mi
10 km
6 mi
10 km
6 mi
10 km
6 mi
10 km
6 mi
10 km
6 mi
10 km
6 mi
10 km
6 mi
10 km
6 mi
10 km
6 mi
10 km
6 mi
10 km
6 mi
10 km
6 mi
10 km
6 mi
10 km
6 mi
10 km
6 mi
10 km
6 mi
10 km
6 mi
10 km
6 mi
10 km
6 mi
10 km
6 mi
10 km

Day/Time
Weather
Condition
Temperature
Dew Point
Pressure
Humidity
Wind Direction
Wind Speed
Prob Precip %
Visibility
POP = Probability of Precipitation. ** Indicates missing data/values from KMYV model statistics.

Trending Headlines

Trending Entertainment Headlines

Marysville Radar Loop

Use the map search tool if you want to place a location marker on the radar map...

48 Hour API Forecast

Prob Precip % = Probability of Precipitation.

Marysville 36 Hour Forecast

POP = Probability of Precipitation. ** Indicates missing data/values from model statistics.

E-mail the Marysville Weather Forecast

Voice your opinion or tell us about page issues...

Marysville CA Weather - 11:38 am

What are people saying?

Contact Us